Location: London
(51.5074°N, 0.1278°W)
Time: 21:03:53
(UTC+01:00)

Envisat - Visible Passes

Search period start: 23 April 2019 00:00
Search period end: 03 May 2019 00:00
Orbit: 764 x 766 km, 98.2° (Epoch: 23 April)

Date Brightness Start Highest point End Pass type
(mag) Time Alt. Az. Time Alt. Az. Time Alt. Az.
24 Apr 5.8 20:58:40 10° WSW 21:01:40 16° W 21:04:40 10° NW visible
27 Apr 5.7 20:46:43 10° SW 20:50:17 19° W 20:53:53 10° NW visible
29 Apr 6.1 21:14:31 10° WSW 21:16:12 12° W 21:17:55 10° WNW visible
02 May 5.9 21:02:05 10° WSW 21:04:48 14° W 21:07:32 10° NW visible
